• In Hungary
  • List of Countries
  • For 7 days
  • Water Temperature
  • Satellite Maps
  • Weather Map
  • News
  • Weather Widgets
  • user-avatar
    Login

    Hourly Weather Lokeren

    Today, 23 September, Sunday

    Time Temperature Precipitation Wind Pressure Humidity
    00:00 +12°C° 0 mm 2 mps 760 mmHg 92%
    01:00 +12°C° 0.3 mm 2 mps 759 mmHg 93%
    02:00 +12°C° 0.3 mm 2 mps 759 mmHg 93%
    03:00 +11°C° 0.3 mm 3 mps 758 mmHg 93%
    04:00 +12°C° 0.3 mm 2 mps 758 mmHg 93%
    05:00 +12°C° 0.3 mm 2 mps 758 mmHg 93%
    06:00 +12°C° 0.3 mm 2 mps 758 mmHg 93%
    07:00 +12°C° 0.2 mm 2 mps 758 mmHg 93%
    08:00 +13°C° 0.2 mm 2 mps 758 mmHg 92%
    09:00 +13°C° 0.2 mm 2 mps 758 mmHg 91%
    10:00 +11°C° 1.8 mm 3 mps 758 mmHg 91%
    11:00 +11°C° 1.8 mm 4 mps 758 mmHg 91%
    12:00 +10°C° 1.8 mm 5 mps 758 mmHg 91%
    13:00 +10°C° 0.7 mm 5 mps 759 mmHg 89%
    14:00 +10°C° 0.7 mm 5 mps 760 mmHg 87%
    15:00 +10°C° 0.7 mm 5 mps 760 mmHg 85%
    16:00 +10°C° 0.3 mm 5 mps 762 mmHg 85%
    17:00 +10°C° 0.3 mm 5 mps 763 mmHg 85%
    18:00 +10°C° 0.3 mm 5 mps 764 mmHg 85%
    19:00 +11°C° 0.1 mm 4 mps 765 mmHg 84%
    20:00 +10°C° 0.1 mm 4 mps 766 mmHg 84%
    21:00 +10°C° 0.1 mm 4 mps 768 mmHg 83%
    22:00 +10°C° 0 mm 3 mps 768 mmHg 83%
    23:00 +9°C° 0 mm 3 mps 769 mmHg 83%

    Tomorrow, 24 September, Monday

    Time Temperature Precipitation Wind Pressure Humidity
    00:00 +9°C° 0 mm 3 mps 770 mmHg 83%
    01:00 +9°C° 0 mm 3 mps 771 mmHg 83%
    02:00 +9°C° 0 mm 3 mps 772 mmHg 82%
    03:00 +9°C° 0 mm 2 mps 772 mmHg 81%
    04:00 +9°C° 0 mm 2 mps 773 mmHg 81%
    05:00 +9°C° 0 mm 2 mps 773 mmHg 81%
    06:00 +8°C° 0 mm 2 mps 774 mmHg 81%
    07:00 +10°C° 0.1 mm 3 mps 774 mmHg 76%
    08:00 +12°C° 0.1 mm 3 mps 775 mmHg 70%
    09:00 +14°C° 0.1 mm 4 mps 775 mmHg 65%
    10:00 +14°C° 0.1 mm 4 mps 775 mmHg 63%
    11:00 +15°C° 0.1 mm 4 mps 776 mmHg 61%
    12:00 +15°C° 0.1 mm 5 mps 776 mmHg 59%
    13:00 +15°C° 0.1 mm 5 mps 776 mmHg 58%
    14:00 +15°C° 0.1 mm 5 mps 776 mmHg 58%
    15:00 +15°C° 0.1 mm 5 mps 776 mmHg 57%
    16:00 +14°C° 0 mm 4 mps 776 mmHg 61%
    17:00 +12°C° 0 mm 4 mps 776 mmHg 65%
    18:00 +11°C° 0 mm 3 mps 776 mmHg 69%
    19:00 +10°C° 0 mm 3 mps 777 mmHg 71%
    20:00 +10°C° 0 mm 2 mps 777 mmHg 73%
    21:00 +9°C° 0 mm 2 mps 778 mmHg 75%
    22:00 +9°C° 0 mm 2 mps 778 mmHg 77%
    23:00 +9°C° 0 mm 1 mps 778 mmHg 79%

    Day after tomorrow, 25 September, Tuesday

    Time Temperature Precipitation Wind Pressure Humidity
    00:00 +9°C° 0 mm 1 mps 778 mmHg 81%
    01:00 +9°C° 0 mm 1 mps 778 mmHg 82%
    02:00 +8°C° 0 mm 1 mps 777 mmHg 83%
    03:00 +8°C° 0 mm 1 mps 777 mmHg 84%
    04:00 +8°C° 0 mm 1 mps 777 mmHg 85%
    05:00 +8°C° 0 mm 1 mps 778 mmHg 85%
    06:00 +8°C° 0 mm 1 mps 778 mmHg 86%
    07:00 +10°C° 0 mm 1 mps 778 mmHg 78%
    08:00 +12°C° 0 mm 1 mps 778 mmHg 71%
    09:00 +14°C° 0 mm 2 mps 778 mmHg 63%
    10:00 +15°C° 0 mm 2 mps 778 mmHg 58%
    11:00 +15°C° 0 mm 2 mps 777 mmHg 53%
    12:00 +16°C° 0 mm 2 mps 777 mmHg 48%
    13:00 +17°C° 0 mm 2 mps 777 mmHg 48%
    14:00 +17°C° 0 mm 2 mps 776 mmHg 47%
    15:00 +17°C° 0 mm 2 mps 776 mmHg 46%
    16:00 +15°C° 0 mm 2 mps 776 mmHg 51%
    17:00 +14°C° 0 mm 2 mps 775 mmHg 55%
    18:00 +12°C° 0 mm 2 mps 775 mmHg 60%
    19:00 +12°C° 0 mm 2 mps 775 mmHg 62%
    20:00 +10°C° 0 mm 2 mps 775 mmHg 63%
    21:00 +10°C° 0 mm 2 mps 776 mmHg 65%
    22:00 +9°C° 0 mm 2 mps 775 mmHg 66%
    23:00 +9°C° 0 mm 2 mps 775 mmHg 68%

    26 September, Wednesday

    Time Temperature Precipitation Wind Pressure Humidity
    00:00 +8°C° 0 mm 2 mps 775 mmHg 69%
    01:00 +8°C° 0 mm 2 mps 774 mmHg 69%
    02:00 +8°C° 0 mm 2 mps 774 mmHg 69%
    03:00 +8°C° 0 mm 2 mps 774 mmHg 69%
    04:00 +7°C° 0 mm 2 mps 774 mmHg 68%
    05:00 +7°C° 0 mm 2 mps 773 mmHg 68%
    06:00 +7°C° 0 mm 2 mps 773 mmHg 67%
    07:00 +9°C° 0 mm 2 mps 773 mmHg 62%
    08:00 +12°C° 0 mm 2 mps 773 mmHg 56%
    09:00 +14°C° 0 mm 2 mps 773 mmHg 50%
    10:00 +16°C° 0 mm 2 mps 773 mmHg 47%
    11:00 +17°C° 0 mm 2 mps 773 mmHg 43%
    12:00 +19°C° 0 mm 2 mps 772 mmHg 39%
    13:00 +19°C° 0 mm 2 mps 772 mmHg 39%
    14:00 +19°C° 0 mm 2 mps 772 mmHg 39%
    15:00 +20°C° 0 mm 2 mps 771 mmHg 39%
    16:00 +18°C° 0 mm 2 mps 771 mmHg 44%
    17:00 +16°C° 0 mm 2 mps 771 mmHg 49%
    18:00 +14°C° 0 mm 1 mps 771 mmHg 53%
    19:00 +14°C° 0 mm 1 mps 772 mmHg 54%
    20:00 +13°C° 0 mm 1 mps 772 mmHg 55%
    21:00 +13°C° 0 mm 2 mps 772 mmHg 56%
    22:00 +13°C° 0 mm 2 mps 772 mmHg 57%
    23:00 +12°C° 0 mm 2 mps 772 mmHg 58%

    27 September, Thursday

    Time Temperature Precipitation Wind Pressure Humidity
    00:00 +12°C° 0 mm 2 mps 772 mmHg 59%
    01:00 +12°C° 0 mm 2 mps 772 mmHg 60%
    02:00 +10°C° 0 mm 2 mps 771 mmHg 61%
    03:00 +10°C° 0 mm 2 mps 771 mmHg 62%
    04:00 +10°C° 0 mm 2 mps 771 mmHg 62%
    05:00 +10°C° 0 mm 2 mps 771 mmHg 63%
    06:00 +10°C° 0 mm 2 mps 771 mmHg 64%
    07:00 +13°C° 0 mm 2 mps 771 mmHg 60%
    08:00 +15°C° 0 mm 2 mps 771 mmHg 56%
    09:00 +17°C° 0 mm 2 mps 771 mmHg 51%
    10:00 +18°C° 0 mm 2 mps 770 mmHg 48%
    11:00 +19°C° 0 mm 2 mps 770 mmHg 44%
    12:00 +21°C° 0 mm 2 mps 770 mmHg 40%
    13:00 +21°C° 0 mm 2 mps 769 mmHg 40%
    14:00 +23°C° 0 mm 2 mps 769 mmHg 39%
    15:00 +23°C° 0 mm 1 mps 768 mmHg 39%
    16:00 +21°C° 0 mm 1 mps 768 mmHg 45%
    17:00 +19°C° 0 mm 1 mps 768 mmHg 50%
    18:00 +16°C° 0 mm 1 mps 768 mmHg 55%
    19:00 +15°C° 0 mm 1 mps 768 mmHg 58%
    20:00 +13°C° 0 mm 0 mps 768 mmHg 60%
    21:00 +13°C° 0 mm 0 mps 768 mmHg 62%
    22:00 +13°C° 0 mm 1 mps 768 mmHg 63%
    23:00 +13°C° 0 mm 1 mps 767 mmHg 64%

    28 September, Friday

    Time Temperature Precipitation Wind Pressure Humidity
    00:00 +13°C° 0 mm 1 mps 767 mmHg 65%
    01:00 +12°C° 0 mm 1 mps 767 mmHg 67%
    02:00 +12°C° 0 mm 1 mps 767 mmHg 69%
    03:00 +11°C° 0 mm 1 mps 766 mmHg 70%
    04:00 +11°C° 0 mm 1 mps 766 mmHg 71%
    05:00 +11°C° 0 mm 1 mps 766 mmHg 72%
    06:00 +11°C° 0 mm 1 mps 766 mmHg 73%
    07:00 +13°C° 0 mm 1 mps 766 mmHg 67%
    08:00 +15°C° 0 mm 1 mps 766 mmHg 61%
    09:00 +18°C° 0 mm 1 mps 766 mmHg 55%
    10:00 +20°C° 0 mm 1 mps 766 mmHg 51%
    11:00 +21°C° 0 mm 1 mps 765 mmHg 48%
    12:00 +22°C° 0 mm 1 mps 765 mmHg 44%
    13:00 +23°C° 0 mm 2 mps 765 mmHg 44%
    14:00 +23°C° 0 mm 2 mps 764 mmHg 44%
    15:00 +23°C° 0 mm 2 mps 764 mmHg 43%
    16:00 +20°C° 0 mm 2 mps 764 mmHg 49%
    17:00 +18°C° 0 mm 3 mps 764 mmHg 55%
    18:00 +17°C° 0 mm 3 mps 765 mmHg 61%
    19:00 +15°C° 0 mm 4 mps 765 mmHg 67%
    20:00 +14°C° 0 mm 4 mps 765 mmHg 73%
    21:00 +14°C° 0 mm 5 mps 766 mmHg 80%
    22:00 +13°C° 0 mm 5 mps 766 mmHg 84%
    23:00 +13°C° 0 mm 5 mps 766 mmHg 88%
    Show more